Showing default

BEIDOU 2, 31115

Orbit data source: Space-Track

BEIDOU 2, 31115 is a payload satellite owned by CNSA (CN) that was launched on Fri, 13 Apr 2007 UTC via a CHANG ZHENG 3A launch vehicle from the Xichang Space Center, China (XSC). Payloads include a variety of satellites, spacecraft, and rockets equipped with specific instruments for various scientific and technological missions. These include communications satellites like Starlink; space stations such as the ISS; scientific satellites like the Hubble; Earth observation satellites from companies like Planet Labs, Umbra, and HawkEye 360; GPS; miniature CubeSats for education and research; and military/defense satellites.

Loading next visibility...
BEIDOU 2 details
Identifier
31115, 2007-011A
Orbit
Active
Last TLE update4 days ago
Origin
Flag of CNCNSA (CN / PRC)
ManufacturerCAST
MissionNon-operational Defense Navigation
Bus & MotorDFH-3, FY-25
Mass2,320 kg wet, 1,300 kg dry
Launch date (UTC)
2007-04-13 (18 years ago)
Launch vehicle
CHANG ZHENG 3A
Launch site
Xichang Space Center, China (XSC)
Object type
Payload
Rocket body
Debris
Shape & HBRBox + 2 Pan, 18 m
Radar Cross Section13.998 m², Large (>1 m²)

Expand to show TLE details & history

TLE from 4 days ago
0 BEIDOU 2
1 31115U 07011A   24357.53415040  .00000014  00000-0  00000+0 0  9997
2 31115  51.1493 237.2824 0002777  15.6193 344.4659  1.77349366116786
Epoch: 2024-12-22T12:49Z
Definitive object data (Epoch: 2024-12-22T12:49:10.594Z)
Latitude-0.00003°
Longitude-46.56925°
Altitude22,444.586 km
Speed3.719 km/s
True Right ascension15h 49m 10s
True Declination0° 00' 00"
Sunlit
Object was in daylight at TLE epoch
Visualization TLE readout
Latitude11.61469°
Longitude123.77798°
Altitude22,458.53 km
Speed3.718 km/s
Apparent Right ascension03h 27m 20s
Apparent Declination3° 01' 49"
Sunlit
Object is in daylight
Visualization observer readout
Local Sidereal Time17:07:06
Azimuth34.119° NE
Elevation-41.342°
Doppler factor1
Orbital elements
Apogee altitude22,460.297 km
Perigee altitude22,444.285 km
Semi-major axis28,830.428 km
Eccentricity0.0002777
Inclination51.1493°
RAAN237.2824°
Arg. of periapsis15.6193°
True anomaly344.45737°
Mean anomaly344.4659°
Eccentric anomaly344.46164°
Mean motion0.44337 °/min
BSTARUnknown
Orbital period811.96 mins
Loading maneuver chart data...
Loading historical data...
Loading historical data...
Loading historical data...
Loading historical data...
Loading historical data...
Loading historical data...
Loading historical data...
Other satellites on launch #11 in the year 2007 (2007-04-13 UTC)

BEIDOU 2 Visibility forecast

Observer location: undefined°, undefined

Span
Click to sort rows by Start time (UTC) header in descending order
Start Az.
Max El. time (UTC)
Max El. Az.
Max El.
End time (UTC)
End Az.
251 mins2024-12-27 04:02:43.725Z316.748° NNW2024-12-27 06:04:43.725Z283.069° WNW28.549°2024-12-27 08:13:43.725Z236.61° WSW
257 mins2024-12-27 13:27:43.725Z156.524° SSE2024-12-27 16:18:43.725Z92.626° ESE39.513°2024-12-27 17:44:43.725Z54.681° ENE
|